Regional Weather Roundup
Issued by NWS Upton, NY

Current Version | Previous Version | Text Only | Print | Product List | Glossary On
Versions: 1 2 3 4 5 6 7 8 9 10 11 12 13 14 15 16 17 18 19 20 21 22 23 24 25 26 27 28 29 30 31 32 33 34 35 36 37 38 39 40 41 42 43 44 45 46 47 48 49 50
427 ASUS41 KOKX 231208 RWROKX REGIONAL WEATHER ROUNDUP NATIONAL WEATHER SERVICE NEW YORK NY 700 AM EST THU NOV 23 2017 NOTE: "FAIR" INDICATES FEW OR NO CLOUDS BELOW 12,000 FEET WITH NO SIGNIFICANT WEATHER AND/OR OBSTRUCTIONS TO VISIBILITY. NYZ071-072-176-178-NJZ106-104-231300- NEW YORK CITY METRO AREA CITY SKY/WX TMP DP RH WIND PRES REMARKS Central Park CLEAR 32 19 58 VRB3 30.13R Bronx Bot Gard N/A 32 19 59 W2 30.13R Bronx Lehman C N/A 32 32 100 W6 N/A WCI 26 LaGuardia APRT PTCLDY 34 20 56 W10 30.11R WCI 26 Queens College N/A 32 32 100 W5 N/A WCI 27 Kennedy INTL PTCLDY 32 20 61 NW8 30.12R WCI 25 Breezy Point N/A 32 N/A N/A NW7G13 N/A WCI 26 Brooklyn Coll N/A 34 32 93 NW7 N/A WCI 28 Staten Island N/A 32 32 100 W3 N/A Newark/Liberty PTCLDY 31 18 58 W7 30.12R WCI 24 Teterboro CLEAR 31 18 58 W3 30.11R $$ NYZ177-179-078>081-231300- LONG ISLAND NEW YORK CITY SKY/WX TMP DP RH WIND PRES REMARKS Jones Beach N/A 32 N/A N/A NW9 N/A WCI 24 Wantagh N/A 32 32 100 SW5 N/A WCI 27 Matinecock PT N/A 34 N/A N/A N14 N/A WCI 24 Farmingdale CLEAR 29 21 72 SW5 30.10R WCI 24 MacArthur/ISP PTCLDY 31 23 72 W5 30.08R WCI 26 Shirley CLEAR 28 25 88 CALM 30.08R Mt Sinai Harb N/A N/A N/A N/A N10G18 N/A Westhampton CLEAR 26 20 77 CALM 30.08S East Hampton FAIR 32 23 70 CALM 30.06S Southold N/A 34 32 93 N12 N/A WCI 25 Montauk N/A 36 25 64 N6 30.07R WCI 31 $$ NYZ052-065-067-231300- HUDSON VALLEY CITY SKY/WX TMP DP RH WIND PRES REMARKS White Plains CLEAR 28 20 71 NW8 30.06R WCI 20 Larchmont Harb N/A 32 N/A N/A NW3 N/A Croton On Huds N/A N/A N/A N/A N5 N/A Somers N/A 28 32 100 NW5 N/A WCI 23 Brewster N/A 28 32 100 N7 N/A WCI 21 Newburgh CLEAR 25 21 86 NW6 30.09R WCI 18 Montgomery CLEAR 26 18 71 NW3 30.08R Suffern N/A 30 32 100 NW6 N/A WCI 24 Poughkeepsie CLEAR 24 18 77 CALM 30.09S Albany CLOUDY 28 17 63 NW10 30.11F WCI 19 $$ NJZ001-105-106-008-010-013-015-019>022-104-231300- NEW JERSEY CITY SKY/WX TMP DP RH WIND PRES REMARKS Newark/Liberty PTCLDY 31 18 58 W7 30.12R WCI 24 Teterboro CLEAR 31 18 58 W3 30.11R Caldwell CLEAR 28 18 66 CALM 30.12R Somerville CLOUDY 25 18 74 CALM 30.11R Linden FAIR 28 19 68 CALM 30.12S Perth Amboy N/A N/A N/A N/A W6 N/A Sussex CLEAR 27 18 69 CALM 30.09S Andover N/A 27 17 66 CALM 30.10R Trenton CLOUDY 28 18 66 W3 30.12S Millville CLOUDY 26 23 88 W3 30.16R Atlantic City CLOUDY 28 21 75 NW7 30.14S WCI 21 Wrightstown CLEAR 27 19 71 NW6 30.11R WCI 20 Toms River CLOUDY 24 21 88 W3 30.14R Belmar CLEAR 28 20 71 SW3 30.13R $$ PAZ047>061-062-071-231300- EASTERN PENNSYLVANIA CITY SKY/WX TMP DP RH WIND PRES REMARKS Philadelphia PTCLDY 32 17 54 NW7 30.16S WCI 26 Allentown CLOUDY 27 16 63 NW8 30.13R WCI 19 Scranton CLOUDY 28 18 66 VRB5 30.10S WCI 23 $$ CTZ002-004>006-009-010-012-RIZ004-006-007-MAZ004-011-015-231300- SOUTHERN NEW ENGLAND IN CT CITY SKY/WX TMP DP RH WIND PRES REMARKS Bradley INTL PTCLDY 29 20 69 N8 30.05R WCI 21 Hartford CLEAR 32 21 64 N6 30.06R WCI 26 Danbury CLEAR 29 18 63 VRB5 30.08R WCI 24 Wtrbury/Oxford CLEAR 28 20 71 NW5 30.04R WCI 23 Norwalk Harbor N/A N/A N/A N/A W7 N/A Bridgeport CLEAR 30 20 66 NW5 30.08R WCI 25 Meriden CLEAR 29 20 69 NW5 30.07R WCI 24 New Haven CLEAR 33 21 61 NW6 30.07R WCI 28 Chester FAIR 30 21 69 NW7 30.04R WCI 23 Groton CLEAR 28 22 78 CALM 30.05R Wilimantic CLEAR 30 21 69 CALM 30.05R IN RI CITY SKY/WX TMP DP RH WIND PRES REMARKS Providence PTCLDY 30 23 75 N5 30.04F WCI 25 Block Island CLEAR 33 22 63 N12G17 30.05R WCI 24 Westerly PTCLDY 28 25 88 CALM 30.05R IN MA CITY SKY/WX TMP DP RH WIND PRES REMARKS Boston PTCLDY 32 20 61 NW6 30.04R WCI 26 Worcester CLEAR 26 16 65 NW10 29.98S WCI 16 Westfield CLEAR 30 20 66 N9 30.05R WCI 22 Provincetown CLEAR 35 24 64 NW17 30.02R WCI 25 Nantucket PTCLDY 35 28 75 NW9 30.02R WCI 28 $$ ANZ330-335-338-340-345-350-353-355-231300- COASTAL MARINE OBSERVATIONS STATION/POSITION TIME SKY/WX TEMP WIND PRES VSBY WAVE AIR SEA DIR/SP/G HT/PER (UTC) (F) (DEG/KT/KT) (MB) (MI) (FT/S) NY HARB ENTRANCE 1150 37 56 340/ 12/ 16 1018.7 4/10 20 S FIRE ISLAND 1150 37 56 330/ 12/ 16 1019.1 5/10 GREAT SOUTH BAY 1030 35 44 320/ 8/ 10 N/A HUDSON CANYON 1150 42 58 330/ 12/ 16 1017.9 6/11 KINGS POINT 1136 34 49 20/ 11/ 15 1019.7 EXECUTION ROCKS 1130 35 310/ 8/ 10 N/A WESTERN LI SOUND 1049 35 310/ 10/ 16 N/A 0 CENTRAL LI SOUND 1115 36 320/ 12/ 19 N/A 2 ROBBINS REEF 1142 33 320/ 8/ 12 1020.4 $$ >>>>>>>>>>>>>>>>>>>>>>>>>>>> KEY <<<<<<<<<<<<<<<<<<<<<<<<<<< > < > SKY/WX - Sky Condition/Present Weather < > TMP - Temperature in Fahrenheit < > DP - Dew Point in Fahrenheit < > RH - Relative Humidity in Percent < > WIND - Direction (from) and Speed in MPH < > PRES - Mean Sea Level Pressure (inches of Hg) < > WCI - Wind Chill Index < > VSB - VISIBILITY IN MILES < > HX - HEAT INDEX < > TC - TEMPERATURE IN CELSIUS < > VRB - VARIABLE WIND DIRECTION < > < >>>>>>>>>>>>>>>>>>>>>>>>>>>> KEY <<<<<<<<<<<<<<<<<<<<<<<<<<<

USA.gov is the U.S. government's official web portal to all federal, state and local government web resources and services.